[[{"header":{"parameterUnit":"m.s-1","parameterCategory":1,"la1":30.2991,"la2":30.254,"lo1":-89.0895,"lo2":-89.0444,"dy":0.0017,"dx":0.0017,"nx":28,"ny":28,"refTime":"2023-07-23T21:00:00:Z","depth":0,"parameterNumber":2,"parameterNumberName":"U-component_of_WINDS"},"data":[0,0,0,0,0,0,0,0,0,0,0,0,0,0,0,0,0,0,0,0,0,0,0,0,0,0,0,0,0,0,0,0,0,0,0,0,0,0,0,0,0,0,0,0,0,0,0,0,0,0,0,0,0,0,0,0,0,0,1.8128,1.8129,0,1.8174,1.8174,1.8175,1.8161,1.816,1.8159,1.8158,1.8203,1.8205,1.8207,0,0,0,0,0,0,0,0,0,0,0,0,0,1.8026,1.8028,1.8128,1.8129,1.8129,1.8174,1.8174,1.8175,1.8161,1.816,1.8159,1.8158,1.8202,1.8204,1.8207,0,0,0,0,0,0,0,0,0,0,0,0,0,1.8071,1.8029,1.8128,1.8128,1.8128,1.8174,1.8174,1.8175,1.8161,1.816,1.8158,1.8157,1.8201,1.8204,1.8207,1.8255,0,0,1.8217,1.8218,0,0,0,0,0,0,0,0,1.8068,1.8075,1.8127,1.8128,1.8128,1.816,1.8155,1.8202,1.8162,1.8149,1.8158,1.8156,1.819,1.8194,1.8205,1.8257,1.8259,1.8217,1.8219,1.822,1.8221,0,0,0,0,0,0,0,1.8065,1.8073,1.8146,1.8128,1.8129,1.8124,1.8129,1.8164,1.8176,1.815,1.8149,1.8154,1.819,1.8202,1.8206,1.826,1.8217,1.822,1.8222,1.8223,1.835,1.8352,0,0,0,0,0,0,1.8062,1.807,1.8145,1.8148,1.8094,1.8127,1.8133,1.8151,1.8176,1.8179,1.8156,1.8154,1.8198,1.8202,1.8208,1.8263,1.822,1.8223,1.8225,1.8349,1.835,1.8352,0,0,0,0,0,0,1.806,1.8069,1.8143,1.8109,1.8118,1.8131,1.8152,1.8153,1.8166,1.8181,1.8183,1.8166,1.8197,1.8203,1.8243,1.8264,1.8225,1.8227,1.8347,1.8349,1.8351,1.8375,0,0,0,0,0,0,1.8057,1.8068,1.8088,1.8109,1.812,1.8178,1.8153,1.8155,1.8171,1.8169,1.8191,1.8193,1.8196,1.8238,1.8246,1.8268,1.823,1.8345,1.8348,1.8351,1.8372,1.8378,1.8383,0,0,0,0,0,1.8054,1.8093,1.8089,1.8098,1.8144,1.818,1.8186,1.8188,1.8173,1.8192,1.8201,1.8193,1.8261,1.8242,1.8251,1.8274,1.8344,1.8347,1.835,1.837,1.8377,1.8382,0,0,0,0,0,0,1.8073,1.8096,1.8091,1.8139,1.8157,1.8177,1.8201,1.8196,1.8219,1.8216,1.8218,1.8223,1.8263,1.8273,1.8252,1.832,1.83,1.8305,1.8312,1.8318,1.8323,1.8319,1.8232,0,0,0,0,0,1.8083,1.8111,1.8129,1.8169,1.8178,1.8188,1.8204,1.8204,1.8223,1.8231,1.8243,1.8262,1.8287,1.8304,1.8328,1.8374,1.8377,1.8394,1.8399,1.8403,1.8407,1.843,1.8437,1.8363,1.8363,1.8363,0,0,1.8103,1.8119,1.8137,1.8173,1.8188,1.8215,1.8195,1.8226,1.8245,1.8236,1.8273,1.8283,1.8303,1.8345,1.8365,1.8355,1.8428,1.8408,1.8411,1.8413,1.8434,1.8441,1.8447,1.8366,1.8365,1.8365,0,0,1.8154,1.817,1.8204,1.8219,1.8241,1.8247,1.8255,1.8275,1.8281,1.8319,1.8311,1.8335,1.8379,1.8393,1.8406,1.846,1.8453,1.8468,1.8494,1.8516,1.8522,1.8527,1.8544,1.855,1.8473,1.8473,1.8473,0,1.8177,1.8219,1.8222,1.8252,1.8267,1.826,1.8293,1.8307,1.8336,1.8346,1.8335,1.8389,1.8402,1.8446,1.8459,1.8471,1.8478,1.8465,1.8521,1.8526,1.8531,1.8547,1.8553,1.8474,1.8474,1.8474,1.8474,0,1.8243,1.8273,1.8297,1.8325,1.8343,1.8375,1.8381,1.8399,1.8397,1.8404,1.8441,1.8457,1.8483,1.8494,1.8494,1.8538,1.853,1.852,1.85,1.8539,1.8554,1.856,1.8477,1.8476,1.8475,1.8475,0,0,1.8308,1.8336,1.8344,1.8356,1.8379,1.8401,1.8431,1.8457,1.8471,1.8491,1.8515,1.8552,1.8542,1.8557,1.8557,1.8577,1.8615,1.8564,1.8564,1.8571,1.8662,1.8668,1.8675,1.8611,1.8613,1.8614,1.8659,0,1.8358,1.8412,1.8415,1.8464,1.8489,1.8482,1.8508,1.8524,1.8531,1.8553,1.856,1.8585,1.8571,1.858,1.8599,1.8607,1.8633,1.8604,1.8632,1.8633,1.8625,1.8683,1.869,1.8733,1.8666,1.8667,1.8667,0,1.8425,1.8446,1.8497,1.8514,1.8525,1.8549,1.8571,1.8593,1.861,1.8614,1.8629,1.8627,1.8656,1.8636,1.8675,1.8655,1.8666,1.8672,1.8673,1.8674,1.8651,1.8684,1.8747,1.8752,1.8677,1.8676,1.8676,0,1.8463,1.8505,1.854,1.855,1.8572,1.8588,1.8598,1.8614,1.8629,1.8649,1.8657,1.8681,1.8692,1.871,1.8712,1.8698,1.8751,1.8731,1.8753,1.8752,1.8763,1.8762,1.8826,1.8774,1.8774,1.8774,1.8774,0,1.8518,1.8549,1.8557,1.8578,1.8612,1.8614,1.8647,1.8656,1.867,1.8691,1.8687,1.8708,1.8711,1.8732,1.8735,1.8765,1.8771,1.8773,1.8773,1.8772,1.8772,1.8779,1.8775,1.8776,1.8775,1.8775,1.8775,0,1.8566,1.8573,1.861,1.8628,1.8633,1.8656,1.867,1.869,1.8696,1.8723,1.873,1.8739,1.8763,1.8768,1.8797,1.8798,1.8834,1.8832,1.8828,1.8827,1.8847,1.8844,1.8916,1.8925,1.8869,1.887,1.887,0,1.86,1.8623,1.8643,1.8657,1.8667,1.8691,1.8705,1.8708,1.8723,1.8744,1.876,1.8784,1.8803,1.8841,1.8849,1.887,1.8868,1.8891,1.8871,1.8868,1.8865,1.8863,1.8864,1.8895,1.8895,1.8896,1.8896,0,1.8658,1.866,1.8681,1.8703,1.872,1.8738,1.8754,1.8766,1.8771,1.8788,1.8812,1.8827,1.8855,1.8878,1.8899,1.8908,1.8902,1.8903,1.8908,1.8907,1.8902,1.8903,1.8836,1.8901,1.89,1.89,1.89,1.89,1.8698,1.8717,1.8733,1.8756,1.8769,1.8784,1.8803,1.8811,1.8831,1.8855,1.8855,1.8881,1.8896,1.8924,1.8934,1.8953,1.8945,1.8954,1.8956,1.8957,1.8958,1.8901,1.8957,1.8957,1.8957,1.8957,1.8957,0,1.8753,1.8763,1.8785,1.8807,1.8825,1.8819,1.8837,1.8852,1.8875,1.8889,1.8908,1.8934,1.8956,1.8965,1.8986,1.9,1.8997,1.9005,1.9003,1.9004,1.8965,1.8957,1.9006,1.9006,1.9006,1.9006,1.9006,1.9006,1.8784,1.8816,1.8819,1.8856,1.8866,1.8891,1.8901,1.8914,1.8926,1.8956,1.8973,1.898,1.8992,1.9013,1.9032,1.9034,1.9041,1.9049,1.905,1.9012,1.9007,1.9002,1.8995,1.9051,1.9051,1.9087,1.9087,1.9088]},{"header":{"parameterUnit":"m.s-1","parameterCategory":1,"la1":30.2991,"la2":30.254,"lo1":-89.0895,"lo2":-89.0444,"dy":0.0017,"dx":0.0017,"nx":28,"ny":28,"refTime":"2023-07-23T21:00:00:Z","depth":0,"parameterNumber":3,"parameterNumberName":"V-component_of_WINDS"},"data":[0,0,0,0,0,0,0,0,0,0,0,0,0,0,0,0,0,0,0,0,0,0,0,0,0,0,0,0,0,0,0,0,0,0,0,0,0,0,0,0,0,0,0,0,0,0,0,0,0,0,0,0,0,0,0,0,0,0,0.9255,0.9255,0,0.9296,0.9296,0.9297,0.9297,0.9297,0.9296,0.9296,0.9337,0.9338,0.934,0,0,0,0,0,0,0,0,0,0,0,0,0,0.9175,0.9176,0.9255,0.9255,0.9256,0.9296,0.9296,0.9297,0.9298,0.9297,0.9296,0.9296,0.9336,0.9338,0.934,0,0,0,0,0,0,0,0,0,0,0,0,0,0.9212,0.9177,0.9255,0.9261,0.9262,0.9296,0.9296,0.9297,0.9298,0.9297,0.9296,0.9295,0.9336,0.9338,0.934,0.937,0,0,0.9348,0.9349,0,0,0,0,0,0,0,0,0.921,0.9215,0.926,0.9261,0.9262,0.9291,0.9283,0.9322,0.9298,0.9284,0.9296,0.9295,0.9322,0.9326,0.9335,0.9372,0.9374,0.9348,0.9349,0.935,0.9351,0,0,0,0,0,0,0,0.9207,0.9213,0.9271,0.926,0.9262,0.9261,0.9265,0.929,0.9307,0.9285,0.9285,0.929,0.9323,0.9333,0.9336,0.9375,0.9348,0.935,0.9351,0.9352,0.9436,0.9437,0,0,0,0,0,0,0.9204,0.9211,0.927,0.9272,0.9234,0.9263,0.9268,0.9282,0.9307,0.931,0.9291,0.929,0.9329,0.9333,0.9337,0.9373,0.935,0.9352,0.9354,0.9435,0.9436,0.9437,0,0,0,0,0,0,0.9202,0.9209,0.9268,0.9242,0.9249,0.9265,0.9281,0.9283,0.9294,0.9311,0.9314,0.9298,0.9329,0.9334,0.9362,0.9374,0.9353,0.9356,0.9434,0.9436,0.9437,0.9445,0,0,0,0,0,0,0.92,0.9209,0.9221,0.9242,0.9251,0.9293,0.9282,0.9285,0.9298,0.9297,0.9319,0.9321,0.9328,0.9358,0.9364,0.9377,0.9357,0.9433,0.9435,0.9436,0.9444,0.9446,0.9449,0,0,0,0,0,0.9197,0.9222,0.9221,0.9229,0.9266,0.9294,0.9298,0.9306,0.9299,0.9311,0.9321,0.9321,0.9372,0.9361,0.9368,0.9382,0.9433,0.9435,0.9436,0.9442,0.9446,0.9448,0,0,0,0,0,0,0.9202,0.9225,0.9225,0.9257,0.9273,0.9294,0.9309,0.931,0.9328,0.9327,0.9335,0.934,0.9367,0.9377,0.9365,0.9411,0.9401,0.9404,0.9404,0.9407,0.9409,0.9406,0.9359,0,0,0,0,0,0.9206,0.9227,0.9246,0.9272,0.928,0.9293,0.9305,0.931,0.9327,0.9334,0.9347,0.9363,0.9382,0.9395,0.9414,0.9445,0.9449,0.9457,0.946,0.9462,0.9465,0.948,0.9484,0.9443,0.9443,0.9443,0,0,0.9217,0.9232,0.9244,0.9274,0.9287,0.9307,0.9299,0.9321,0.9336,0.9337,0.9364,0.9374,0.9392,0.9421,0.9434,0.943,0.9476,0.9464,0.9466,0.9467,0.9482,0.9486,0.9489,0.9445,0.9444,0.9444,0,0,0.9245,0.9259,0.9282,0.9295,0.9315,0.9323,0.9328,0.9348,0.9355,0.9382,0.9382,0.9399,0.9433,0.9446,0.9457,0.9488,0.9487,0.9494,0.9507,0.9522,0.9525,0.9528,0.9538,0.9542,0.9496,0.9496,0.9496,0,0.9256,0.9287,0.9294,0.9316,0.9328,0.9329,0.9352,0.9364,0.9389,0.9397,0.9392,0.9433,0.9446,0.9477,0.9484,0.9493,0.9499,0.9492,0.9524,0.9527,0.9529,0.9539,0.9543,0.9497,0.9497,0.9497,0.9497,0,0.9298,0.9319,0.9335,0.9359,0.9373,0.9395,0.9405,0.9418,0.942,0.9428,0.9455,0.9469,0.9491,0.9498,0.9501,0.9529,0.9526,0.9522,0.9513,0.9534,0.9543,0.9547,0.9498,0.9498,0.9497,0.9497,0,0,0.9332,0.9358,0.9364,0.9374,0.9395,0.9411,0.9432,0.9453,0.9464,0.948,0.9497,0.9525,0.9521,0.9533,0.9537,0.955,0.9572,0.9545,0.9545,0.9549,0.9603,0.9606,0.961,0.9572,0.9573,0.9573,0.9601,0,0.9363,0.9402,0.9408,0.9441,0.946,0.946,0.9479,0.9493,0.95,0.9517,0.9525,0.9544,0.9538,0.9545,0.9558,0.9567,0.9583,0.9565,0.9588,0.9588,0.9583,0.9615,0.9618,0.9644,0.9605,0.9606,0.9606,0,0.9405,0.9422,0.9457,0.9473,0.9482,0.9498,0.9517,0.9533,0.9548,0.9552,0.9565,0.9567,0.9588,0.9577,0.9605,0.9592,0.9602,0.9607,0.9608,0.9611,0.9599,0.9618,0.9653,0.9656,0.9612,0.9612,0.9611,0,0.9426,0.9457,0.9482,0.9491,0.9511,0.9522,0.9531,0.9545,0.9557,0.9572,0.958,0.9598,0.9607,0.9621,0.9627,0.9619,0.9654,0.9644,0.9658,0.9658,0.9666,0.9665,0.9702,0.9672,0.9672,0.9672,0.9672,0,0.9459,0.9481,0.9491,0.9507,0.953,0.9536,0.9559,0.9567,0.958,0.9596,0.9597,0.9611,0.9619,0.9634,0.9639,0.9661,0.9666,0.9669,0.967,0.9669,0.9669,0.9675,0.9674,0.9673,0.9673,0.9672,0.9672,0,0.9487,0.9495,0.9522,0.9538,0.9543,0.9559,0.9572,0.9587,0.9593,0.9613,0.9618,0.9629,0.9647,0.9654,0.9677,0.968,0.9705,0.9705,0.97,0.97,0.9713,0.9712,0.9756,0.9761,0.9728,0.9728,0.9728,0,0.9508,0.9525,0.9542,0.9553,0.9562,0.9579,0.959,0.9596,0.9608,0.9625,0.9637,0.9655,0.967,0.9699,0.9708,0.9725,0.9725,0.9739,0.9727,0.9725,0.9724,0.9723,0.9724,0.9741,0.9742,0.9742,0.9742,0,0.9544,0.9547,0.9564,0.9581,0.9594,0.9608,0.9622,0.963,0.9638,0.9651,0.9669,0.9681,0.9703,0.9721,0.9737,0.9745,0.9745,0.9745,0.9749,0.9748,0.9745,0.9746,0.9706,0.9745,0.9744,0.9744,0.9744,0.9744,0.9569,0.9583,0.9597,0.9615,0.9625,0.9637,0.9651,0.9659,0.9675,0.9693,0.9695,0.9715,0.9728,0.975,0.9759,0.9773,0.977,0.9776,0.9777,0.9778,0.9779,0.9742,0.9777,0.9776,0.9776,0.9776,0.9776,0,0.9605,0.9613,0.963,0.9648,0.9662,0.9659,0.9674,0.9685,0.9702,0.9714,0.9728,0.9749,0.9765,0.9775,0.9791,0.9801,0.9801,0.9805,0.9805,0.9806,0.9782,0.9776,0.9805,0.9805,0.9805,0.9805,0.9805,0.9805,0.9625,0.9648,0.9652,0.9679,0.9688,0.9707,0.9715,0.9726,0.9735,0.9758,0.9772,0.9778,0.9788,0.9805,0.982,0.9822,0.9828,0.9832,0.9834,0.9811,0.9808,0.9805,0.98,0.9833,0.9833,0.9857,0.9857,0.9858]}]]